Total_Precipitation_Accumulation
3.60 4.06 4.03 4.08 3.73 3.87 4.27 4.64 4.61 4.86 5.17 4.98 4.38 4.12 4.28 4.16 3.86 3.60 3.81 4.04 4.15 4.22 4.76 5.14 4.78 4.49 4.32 3.91 3.52 3.33 3.15 3.13 2.99 2.72 2.49 2.37 2.32 2.16 1.93 1.90 1.72 1.59 1.49
3.80 4.18 4.16 4.10 3.74 3.72 4.06 4.44 4.50 4.85 4.98 5.01 4.39 4.00 4.03 3.97 3.63 3.30 3.37 3.86 3.99 3.98 4.32 4.86 5.00 4.96 4.69 4.35 4.00 3.63 3.33 3.24 3.21 3.02 2.71 2.46 2.40 2.39 2.38 2.20 1.99 1.87 1.73
4.03 4.37 4.33 3.95 3.72 3.81 4.04 4.05 4.20 4.70 4.60 4.51 4.40 4.22 4.07 3.85 3.49 3.46 3.39 3.60 3.45 3.67 4.08 4.32 4.67 5.02 5.11 5.00 4.81 4.32 3.93 3.47 3.20 3.01 2.78 2.56 2.45 2.30 2.34 2.37 2.23 2.09 1.93
3.64 4.07 3.79 3.37 3.47 3.72 4.05 4.11 3.99 4.37 4.60 4.58 4.62 4.40 4.09 3.88 3.45 3.36 3.34 3.31 3.33 3.12 3.54 4.01 4.43 4.78 5.21 5.52 5.62 5.44 4.95 4.20 3.58 3.22 2.88 2.68 2.58 2.33 2.12 2.10 2.18 2.15 1.97
2.72 3.13 3.13 3.03 3.02 3.42 3.70 3.26 3.48 3.81 4.08 4.34 3.97 3.83 3.43 3.24 3.19 2.96 2.87 2.78 3.03 3.23 3.41 3.55 4.01 4.38 5.08 5.96 6.50 6.47 5.98 5.06 4.23 3.75 3.40 3.09 2.98 2.69 2.28 2.06 2.08 2.04 1.94
2.52 2.86 2.88 2.70 2.66 3.02 3.31 3.49 3.71 3.73 3.56 3.69 3.23 3.19 3.13 2.89 2.93 2.89 2.67 2.64 2.78 2.72 3.05 3.45 3.86 3.73 4.35 5.39 6.14 6.37 6.30 5.82 4.98 4.29 3.94 3.76 3.68 3.31 2.78 2.48 2.34 2.17 2.04
2.60 3.01 2.81 2.92 2.76 2.88 3.06 3.18 3.36 3.41 3.19 3.36 3.75 3.63 3.23 2.90 2.88 2.80 2.69 2.76 2.81 2.91 3.13 3.60 3.87 4.00 3.92 3.98 4.45 5.25 5.98 6.31 6.12 5.37 4.68 4.28 4.19 3.74 3.10 2.86 2.63 2.45 2.40
2.51 2.50 2.84 2.71 2.68 2.99 3.03 3.18 3.37 3.27 2.95 3.15 3.70 3.99 3.79 3.78 3.19 2.46 2.62 2.74 2.82 3.14 3.15 3.10 3.41 4.04 4.11 4.33 3.72 4.13 5.36 6.15 6.74 6.71 5.91 5.01 4.63 4.14 3.55 3.26 3.00 2.82 2.67
2.16 2.34 2.46 2.45 2.65 2.63 2.93 3.16 3.20 3.37 3.38 3.16 3.15 3.65 3.72 3.77 3.46 2.82 2.45 2.55 2.87 3.25 3.27 3.26 3.23 3.60 3.92 4.47 4.39 3.98 4.42 4.92 5.95 6.96 7.05 6.09 4.93 4.09 3.74 3.66 3.58 3.32 3.05
2.17 2.25 2.36 2.56 2.70 2.56 2.95 2.67 2.86 3.32 3.54 3.23 3.22 3.11 3.16 3.37 3.46 3.36 2.92 2.58 2.71 2.86 3.09 3.11 3.16 3.48 3.76 4.02 4.14 3.58 3.42 3.69 4.57 5.81 6.73 6.73 5.83 4.71 4.09 4.15 4.42 4.24 3.84
2.34 2.15 2.43 2.79 2.90 2.72 2.77 2.83 3.24 3.22 3.26 3.23 3.21 3.16 3.24 3.31 3.12 3.18 3.17 2.96 2.73 2.35 2.47 2.83 3.15 3.35 3.51 3.72 3.98 3.58 3.48 3.36 3.40 3.90 4.65 5.42 5.90 5.67 5.21 5.11 5.44 5.64 5.44
2.44 2.30 2.49 2.82 2.84 2.91 2.94 2.91 3.05 3.14 3.27 3.37 3.26 3.03 3.10 3.17 3.22 3.38 3.04 2.96 2.98 2.55 2.57 2.82 2.96 3.20 3.24 3.42 3.32 3.25 3.22 3.28 3.18 3.09 3.32 3.76 4.44 5.14 5.49 5.78 6.11 6.41 6.54
2.14 2.27 2.43 2.73 2.73 2.76 2.71 2.97 3.04 3.05 3.20 3.21 3.13 3.09 2.98 2.90 2.98 3.17 3.18 2.96 2.90 2.70 2.87 2.81 2.80 2.91 2.88 3.24 3.43 3.36 2.86 2.96 2.85 2.73 2.77 3.01 3.32 3.94 4.66 5.24 5.78 6.28 6.63
1.75 1.91 2.15 2.26 2.33 2.38 2.38 3.00 2.92 2.98 3.16 3.03 2.77 3.20 3.06 2.72 2.87 3.00 3.32 3.61 3.34 3.10 3.07 2.90 2.83 2.86 3.02 3.23 3.43 3.39 2.85 2.88 2.75 2.53 2.34 2.29 2.42 2.69 3.17 3.63 4.15 4.67 5.14
1.81 1.89 1.95 2.23 2.38 2.49 2.62 2.96 2.90 2.89 3.12 2.91 2.84 3.00 2.89 2.82 2.81 2.75 3.18 3.64 3.89 3.61 3.25 3.02 2.75 2.65 2.80 3.00 3.16 2.77 2.63 2.75 2.59 2.43 2.20 2.04 2.02 2.15 2.36 2.59 2.76 2.94 3.15
1.93 2.09 2.15 2.32 2.47 2.48 2.58 2.80 2.72 2.84 3.02 2.92 2.94 2.95 2.83 2.78 2.92 2.82 2.95 3.29 3.59 3.81 3.44 2.84 2.66 2.49 2.52 2.37 2.65 2.34 2.41 2.63 2.41 2.26 2.08 1.99 1.92 1.97 2.06 2.17 2.30 2.34 2.40
2.01 2.12 2.23 2.40 2.45 2.55 2.69 2.83 2.63 2.79 2.96 3.13 3.01 3.00 3.05 3.19 3.14 3.01 3.10 3.20 3.42 3.74 3.57 2.94 2.81 2.75 2.60 2.37 2.37 2.27 2.23 2.34 2.35 2.47 2.27 2.05 1.85 1.77 1.84 1.92 1.99 2.09 2.21
2.33 2.29 2.35 2.43 2.35 2.43 2.70 2.74 2.69 2.78 2.84 2.84 3.04 3.36 3.27 3.37 3.31 3.13 3.26 3.21 3.36 3.74 3.55 3.15 3.09 3.08 3.00 2.75 2.62 2.40 2.14 2.13 2.29 2.61 2.38 2.18 1.96 1.84 1.84 1.87 1.91 1.89 1.91
2.62 2.66 2.65 2.52 2.46 2.47 2.57 2.68 2.78 2.81 2.81 2.85 3.00 3.11 3.18 3.48 3.33 3.25 3.19 3.15 3.29 3.49 3.65 3.30 3.14 3.36 3.19 2.87 2.78 2.44 2.20 2.33 2.10 2.29 2.31 2.29 2.17 2.00 1.91 1.82 1.88 1.88 1.84
2.69 2.82 2.79 2.73 2.66 2.55 2.42 2.42 2.52 2.63 2.76 2.89 2.94 2.89 2.99 3.24 3.36 3.42 3.20 3.20 3.37 3.48 3.57 3.42 3.23 3.35 3.36 3.26 3.09 2.79 2.68 2.52 2.34 2.18 2.32 2.30 2.27 2.09 1.91 1.77 1.81 1.84 1.82
2.66 2.84 2.89 2.92 2.88 2.66 2.36 2.48 2.68 2.66 2.83 2.81 2.71 2.62 2.63 2.91 3.17 3.27 2.94 3.04 3.26 3.27 3.26 3.27 3.23 3.32 3.36 3.52 3.32 3.00 2.76 2.63 2.40 2.22 2.30 2.19 2.22 2.08 1.97 1.93 1.91 1.82 1.63
3.05 3.08 2.94 2.88 2.82 2.38 2.59 2.66 2.68 2.72 2.88 2.86 2.74 2.66 2.55 2.49 2.51 2.67 2.78 2.93 3.10 3.09 3.09 3.28 3.41 3.47 3.47 3.55 3.56 3.32 3.00 2.78 2.53 2.29 2.47 2.45 2.42 2.39 2.12 1.85 1.91 1.84 1.65
3.48 3.44 3.26 3.07 2.89 2.82 2.82 2.59 2.58 2.44 2.50 2.58 2.69 2.65 2.29 2.07 2.22 2.15 2.40 2.55 2.61 2.70 2.82 3.08 3.22 3.27 3.43 3.61 3.76 3.44 3.23 3.02 2.74 2.51 2.61 2.43 2.36 2.39 2.25 2.08 2.16 1.92 1.80
3.45 3.46 3.36 3.21 3.03 2.90 2.86 2.59 2.59 2.32 2.27 2.30 2.40 2.43 2.35 2.20 2.19 2.34 2.34 2.23 2.12 2.18 2.41 2.45 2.56 2.84 3.11 3.37 3.63 3.53 3.48 3.17 2.81 2.58 2.59 2.40 2.24 2.25 2.28 2.29 2.29 2.05 1.84
3.32 3.19 3.08 3.05 3.01 3.05 3.14 2.83 2.65 2.32 2.30 2.24 2.22 2.23 2.25 2.16 2.39 2.41 2.28 2.21 2.19 2.16 2.25 2.37 2.36 2.50 2.76 2.92 3.11 3.28 3.28 3.17 2.86 2.67 2.68 2.64 2.40 2.35 2.32 2.25 2.12 2.11 1.91
3.31 3.21 3.03 3.02 3.03 3.01 3.17 2.78 2.62 2.34 2.30 2.25 2.26 2.26 2.33 2.24 2.34 2.26 2.13 2.19 2.12 2.09 2.19 2.20 2.19 2.20 2.27 2.60 2.99 2.84 2.94 3.05 2.83 2.53 2.32 2.45 2.46 2.59 2.50 2.16 1.95 1.85 1.80